PST,Max TemperatureF,Mean TemperatureF,Min TemperatureF,Max Dew PointF,MeanDew PointF,Min DewpointF,Max Humidity, Mean Humidity, Min Humidity, Max Sea Level PressureIn, Mean Sea Level PressureIn, Min Sea Level PressureIn, Max VisibilityMiles, Mean VisibilityMiles, Min VisibilityMiles, Max Wind SpeedMPH, Mean Wind SpeedMPH, Max Gust SpeedMPH,PrecipitationIn, CloudCover, Events, WindDirDegrees
2013-1-1,60,49,37,32,28,20,82,52,21,30.22,30.15,30.09,10,9,5,12,2,14,0.00,3,,188
2013-1-2,65,52,39,30,25,19,57,39,20,30.11,30.05,30.01,10,10,10,8,2,15,0.00,0,,137
2013-1-3,71,55,38,26,21,8,59,34,9,30.16,30.09,30.04,10,10,10,12,2,16,0.00,0,,349
2013-1-4,66,52,37,24,18,7,52,31,10,30.26,30.19,30.15,10,10,10,8,2,12,0.00,0,,272
2013-1-5,65,51,36,38,24,15,59,37,15,30.27,30.21,30.16,10,10,10,8,1,9,0.00,0,,222
2013-1-6,56,51,45,44,41,36,93,70,47,30.19,30.10,30.01,10,8,2,15,3,20,0.06,6,Rain,230
2013-1-7,72,59,46,36,27,11,61,36,10,30.07,30.00,29.93,10,10,10,24,9,30,0.00,0,,330
2013-1-8,73,58,42,39,32,25,59,39,19,30.09,30.05,29.99,10,10,10,10,4,15,0.00,0,,351
2013-1-9,68,57,45,48,40,35,89,61,32,30.10,30.04,29.98,10,9,4,10,4,17,0.00,2,,168
2013-1-10,55,49,42,47,33,17,83,54,24,30.07,29.95,29.89,10,9,4,25,12,32,T,5,Rain,323
2013-1-11,53,46,38,24,20,13,54,38,21,30.18,30.10,30.04,10,10,10,21,11,29,0.00,0,,328
2013-1-12,54,46,37,23,18,10,48,33,18,30.14,30.08,30.05,10,10,9,12,5,15,0.00,0,,288
2013-1-13,54,43,32,25,17,7,59,39,18,30.16,30.08,30.03,10,10,10,14,3,16,0.00,0,,281
2013-1-14,56,47,37,14,1,-10,34,21,7,30.32,30.23,30.13,10,10,10,23,7,29,0.00,0,,348
2013-1-15,58,46,33,30,16,8,50,33,15,30.43,30.35,30.30,10,10,10,10,2,17,0.00,0,,212
2013-1-16,68,53,37,30,25,22,59,40,20,30.33,30.23,30.11,10,10,10,12,2,14,0.00,0,,167
2013-1-17,78,60,41,26,21,17,49,30,10,30.16,30.10,30.04,10,10,10,7,2,13,0.00,0,,115
2013-1-18,76,59,42,24,19,12,43,26,9,30.14,30.09,30.04,10,10,10,9,2,13,0.00,0,,232
2013-1-19,77,60,42,21,16,8,39,23,7,30.18,30.11,30.06,10,10,10,8,1,15,0.00,0,,265
2013-1-20,79,61,42,22,15,8,36,22,7,30.14,30.07,29.99,10,10,10,9,1,10,0.00,0,,346
2013-1-21,81,62,43,18,11,0,33,19,4,30.09,30.03,29.99,10,10,10,9,2,10,0.00,0,,332
2013-1-22,79,62,45,21,12,3,29,17,5,30.10,30.04,29.99,10,10,10,8,2,12,0.00,0,,324
2013-1-23,78,65,52,47,30,18,57,37,16,30.12,30.04,30.00,10,10,8,14,5,18,0.02,3,Rain,153
2013-1-24,64,58,52,54,52,47,93,80,67,30.20,30.13,30.08,10,7,2,16,5,21,0.67,8,Rain,126
2013-1-25,62,60,57,55,53,51,86,81,75,30.13,30.03,29.94,10,9,3,8,3,13,0.02,8,Rain,291
2013-1-26,66,59,52,55,54,52,100,82,63,29.97,29.91,29.86,10,9,2,13,5,14,T,7,Rain,162
2013-1-27,59,53,47,54,45,29,100,75,50,30.00,29.96,29.92,10,7,2,16,7,18,0.03,6,Rain,159
2013-1-28,58,52,46,27,25,21,46,35,24,30.16,30.08,30.00,10,10,10,22,10,28,0.00,0,,320
2013-1-29,59,51,42,38,32,27,71,54,36,30.20,30.17,30.12,10,10,10,15,5,17,0.00,0,,158
2013-1-30,71,56,40,39,37,33,79,53,27,30.31,30.24,30.19,10,10,10,12,2,21,0.00,0,,216
2013-1-31,78,61,43,41,37,34,76,48,19,30.22,30.14,30.06,10,10,10,10,2,16,0.00,0,,245